NOAA 16 DEB, 41404

Orbit data source: Space-Track

NOAA 16 DEB, 41404 is space debris in SSO originally from a launch on Thu, 21 Sep 2000 UTC launched from the Air Force Western Test Range (AFWTR). Debris objects in space refer to the collection of defunct objects orbiting the Earth. Examples of debris include non-operational satellites, rocket bodies, and fragments generated from explosions, collisions, or faulty payload assembly.

Loading next visibility...
Identifier
41404, 2000-055KH
Orbit
SSO
Country
Flag of USUS
Related business
Manufacturer
Unknown
Mission
Spacecraft
Bus & Motor
Unknown
Mass
Unknown
Launch date (UTC)
2000-09-21 (25 years ago)
Launch vehicle
Unknown
Launch site
Air Force Western Test Range (AFWTR)
Object type
Payload
Rocket body
Debris
Shape & HBR
Unknown shape, 0.1 m
Radar Cross Section
Small (<0.1 m²)

Expand to show TLE details & history
Last TLE update: 1 day ago

TLE from 1 day ago
0 NOAA 16 DEB
1 41404U 00055KH  25296.05624788  .00009494  00000-0  25307-2 0  9992
2 41404  99.0212 150.8992 0025575 148.6585 211.6137 14.48477847503646
Epoch: 2025-10-23T01:20Z
TLE epoch observation values (Epoch: 2025-10-23T01:20:59.816Z)
Latitude
-0.00001°
Longitude
98.92899°
Altitude
749.066 km
Speed
7.472 km/s
True Right ascension
10h 03m 35s
True Declination
0° 00' 00"
Sunlit
Object was in daylight at epoch
Visualization orbit readout
Latitude
Unknown
Longitude
Unknown
Altitude
Unknown
Speed
Unknown
Apparent Right ascension
Unknown
Apparent Declination
Unknown
Sunlit
N/A
Visualization observer readout
Local Sidereal Time
21:01:33
Azimuth
Unknown
Elevation
Unknown
Doppler factor
Unknown
Orbital elements
Apogee altitude
745.934 km
Perigee altitude
709.587 km
Semi-major axis
7,105.897 km
Eccentricity
0.00256
Inclination
99.0212°
RAAN
150.8992°
Arg. of periapsis
148.6585°
True anomaly
211.46049°
Mean anomaly
211.6137°
Eccentric anomaly
211.53706°
Mean motion
3.62339 °/min
Orbital period
99.35 mins
BSTAR
0.0025307
Loading maneuver chart data...
Computing Atmospheric mass density...
Loading historical data...
Loading historical data...
Loading historical data...
Loading historical data...
Loading historical data...
Loading historical data...
Loading historical data...

Documentation

Showing up to 5 results
|